[[{"header":{"parameterUnit":"m.s-1","parameterCategory":1,"la1":30.2991,"la2":30.254,"lo1":-89.0895,"lo2":-89.0444,"dy":0.0017,"dx":0.0017,"nx":28,"ny":28,"refTime":"2024-12-19T09:00:00:Z","depth":0,"parameterNumber":2,"parameterNumberName":"U-component_of_WINDS"},"data":[0,0,0,0,0,0,0,0,0,0,0,0,0,0,0,0,0,0,0,0,0,0,0,0,0,0,0,0,0,0,0,0,0,0,0,0,0,0,0,0,0,0,0,0,0,0,0,0,0,0,0,0,0,0,0,0,0,0,0.635,0.635,0,0.6348,0.6348,0.6348,0.6358,0.6358,0.6358,0.6359,0.6355,0.6355,0.6354,0,0,0,0,0,0,0,0,0,0,0,0,0,0.6361,0.6361,0.635,0.635,0.635,0.6348,0.6348,0.6348,0.6358,0.6358,0.6358,0.6359,0.6355,0.6355,0.6354,0,0,0,0,0,0,0,0,0,0,0,0,0,0.6358,0.6361,0.635,0.6355,0.6355,0.6348,0.6348,0.6348,0.6358,0.6358,0.6359,0.6359,0.6355,0.6355,0.6354,0.6342,0,0,0.6352,0.6352,0,0,0,0,0,0,0,0,0.6358,0.6357,0.6354,0.6354,0.6355,0.6354,0.6351,0.6346,0.6358,0.6357,0.6359,0.6359,0.6354,0.6354,0.6352,0.6342,0.6341,0.6352,0.6352,0.6352,0.6352,0,0,0,0,0,0,0,0.6358,0.6357,0.6349,0.6354,0.6354,0.6357,0.6356,0.635,0.6353,0.6357,0.6357,0.6357,0.6354,0.6353,0.6352,0.6341,0.6352,0.6352,0.6351,0.6351,0.6321,0.632,0,0,0,0,0,0,0.6358,0.6357,0.6349,0.6349,0.6357,0.6356,0.6356,0.6353,0.6353,0.6353,0.6357,0.6358,0.6353,0.6353,0.6352,0.6337,0.6352,0.6351,0.6351,0.6321,0.6321,0.632,0,0,0,0,0,0,0.6358,0.6357,0.6349,0.6353,0.6353,0.6355,0.6353,0.6353,0.6352,0.6353,0.6353,0.6355,0.6354,0.6353,0.6344,0.6337,0.6351,0.635,0.6322,0.6321,0.632,0.6308,0,0,0,0,0,0,0.6358,0.6357,0.6353,0.6353,0.6352,0.6342,0.6352,0.6353,0.6351,0.6352,0.6351,0.6351,0.6354,0.6345,0.6344,0.6337,0.635,0.6322,0.6321,0.6321,0.6309,0.6307,0.6305,0,0,0,0,0,0.6359,0.6349,0.6352,0.6351,0.6347,0.6341,0.6341,0.6345,0.635,0.6346,0.6347,0.6351,0.6339,0.6344,0.6343,0.6336,0.6323,0.6322,0.6321,0.631,0.6307,0.6305,0,0,0,0,0,0,0.6347,0.6349,0.6353,0.6343,0.6342,0.6343,0.6337,0.6342,0.6339,0.634,0.6344,0.6344,0.6335,0.6334,0.6341,0.6324,0.6332,0.633,0.6324,0.6322,0.632,0.6319,0.635,0,0,0,0,0,0.6343,0.6339,0.6341,0.6332,0.6332,0.6335,0.6332,0.6335,0.6334,0.6334,0.6334,0.6332,0.6328,0.6325,0.6321,0.631,0.6309,0.6304,0.6302,0.63,0.6299,0.6292,0.629,0.6317,0.6317,0.6317,0,0,0.6335,0.6336,0.6333,0.633,0.6329,0.6324,0.6334,0.6328,0.6325,0.6333,0.6325,0.6325,0.6323,0.6313,0.6309,0.6313,0.6292,0.6299,0.6298,0.6297,0.6291,0.6288,0.6286,0.6316,0.6316,0.6316,0,0,0.6318,0.6318,0.6311,0.6311,0.631,0.6312,0.6311,0.6311,0.6312,0.6304,0.631,0.6306,0.6298,0.6297,0.6295,0.6278,0.6282,0.6277,0.6266,0.626,0.6258,0.6256,0.6249,0.6247,0.6275,0.6275,0.6275,0,0.6308,0.6301,0.6306,0.63,0.6299,0.6307,0.6299,0.6298,0.6296,0.6295,0.6299,0.629,0.629,0.6279,0.6275,0.6274,0.6272,0.6276,0.6258,0.6256,0.6254,0.6248,0.6246,0.6275,0.6275,0.6275,0.6275,0,0.6289,0.6284,0.6278,0.6276,0.6274,0.6267,0.6271,0.6268,0.6272,0.6273,0.6265,0.6265,0.6261,0.626,0.6263,0.6249,0.6252,0.6257,0.6265,0.6251,0.6245,0.6243,0.6274,0.6274,0.6274,0.6274,0,0,0.6263,0.6265,0.6262,0.6262,0.6262,0.6258,0.6252,0.6249,0.6246,0.6245,0.6239,0.6233,0.6238,0.6236,0.6239,0.6234,0.622,0.624,0.624,0.6235,0.6205,0.62,0.6197,0.6223,0.6223,0.6222,0.6205,0,0.6245,0.6235,0.624,0.6228,0.6224,0.6232,0.6226,0.6225,0.6227,0.6223,0.6225,0.622,0.6228,0.6226,0.6222,0.6223,0.6214,0.6224,0.6217,0.6217,0.6216,0.6194,0.6189,0.6172,0.6203,0.6202,0.6202,0,0.6223,0.6222,0.621,0.6211,0.621,0.6204,0.6202,0.6199,0.6198,0.62,0.6198,0.6202,0.6196,0.6205,0.6195,0.6202,0.62,0.62,0.62,0.6198,0.6208,0.6191,0.6167,0.6164,0.6198,0.6199,0.6199,0,0.6205,0.62,0.6192,0.6191,0.6193,0.6189,0.6189,0.619,0.6187,0.6185,0.6184,0.6181,0.6179,0.6176,0.618,0.6186,0.617,0.6179,0.617,0.617,0.6166,0.6166,0.614,0.6166,0.6166,0.6166,0.6166,0,0.6184,0.6177,0.6184,0.6179,0.617,0.6176,0.6168,0.6169,0.6169,0.6164,0.6171,0.6166,0.6172,0.6167,0.617,0.6162,0.6161,0.6162,0.6162,0.6161,0.616,0.6158,0.6159,0.6165,0.6165,0.6165,0.6166,0,0.6161,0.6166,0.6158,0.616,0.6161,0.6155,0.6157,0.6152,0.6155,0.6148,0.6147,0.6151,0.6146,0.615,0.6145,0.6147,0.6136,0.6139,0.6136,0.6136,0.6127,0.6128,0.6098,0.6094,0.6124,0.6123,0.6123,0,0.6148,0.6142,0.6144,0.6142,0.6142,0.6138,0.6136,0.6142,0.6139,0.6139,0.6134,0.613,0.6127,0.6119,0.6121,0.6118,0.612,0.611,0.6119,0.6118,0.6119,0.6119,0.6118,0.6108,0.6107,0.6107,0.6107,0,0.6122,0.6125,0.6122,0.612,0.6118,0.6116,0.6115,0.6113,0.6119,0.6116,0.6111,0.6109,0.6105,0.6101,0.6098,0.6098,0.6103,0.6104,0.6102,0.6099,0.6097,0.6097,0.613,0.6104,0.6105,0.6105,0.6105,0.6105,0.6103,0.6098,0.6099,0.6096,0.6096,0.6095,0.6091,0.6093,0.609,0.6087,0.609,0.6085,0.6085,0.6082,0.6081,0.6077,0.6081,0.6078,0.6077,0.6076,0.6074,0.6099,0.6077,0.6077,0.6077,0.6077,0.6077,0,0.6077,0.6078,0.6075,0.6074,0.6071,0.6077,0.6077,0.6074,0.6069,0.6069,0.6066,0.6061,0.6057,0.6059,0.6056,0.6052,0.6054,0.6051,0.6051,0.605,0.6071,0.6073,0.6049,0.6049,0.6049,0.6049,0.6049,0.6049,0.6063,0.6056,0.6058,0.6051,0.6052,0.6047,0.6046,0.6045,0.6045,0.6039,0.6036,0.6038,0.6039,0.6035,0.6032,0.6033,0.6031,0.6026,0.6028,0.6046,0.6049,0.6052,0.6053,0.6026,0.6026,0.6008,0.6007,0.6007]},{"header":{"parameterUnit":"m.s-1","parameterCategory":1,"la1":30.2991,"la2":30.254,"lo1":-89.0895,"lo2":-89.0444,"dy":0.0017,"dx":0.0017,"nx":28,"ny":28,"refTime":"2024-12-19T09:00:00:Z","depth":0,"parameterNumber":3,"parameterNumberName":"V-component_of_WINDS"},"data":[0,0,0,0,0,0,0,0,0,0,0,0,0,0,0,0,0,0,0,0,0,0,0,0,0,0,0,0,0,0,0,0,0,0,0,0,0,0,0,0,0,0,0,0,0,0,0,0,0,0,0,0,0,0,0,0,0,0,-3.1538,-3.1538,0,-3.1564,-3.1565,-3.1565,-3.1544,-3.1543,-3.1542,-3.1541,-3.1565,-3.1566,-3.1568,0,0,0,0,0,0,0,0,0,0,0,0,0,-3.1467,-3.1468,-3.1538,-3.1538,-3.1539,-3.1564,-3.1565,-3.1565,-3.1544,-3.1543,-3.1542,-3.1541,-3.1564,-3.1566,-3.1568,0,0,0,0,0,0,0,0,0,0,0,0,0,-3.1496,-3.1469,-3.1538,-3.1531,-3.1531,-3.1564,-3.1565,-3.1565,-3.1544,-3.1543,-3.1542,-3.1541,-3.1564,-3.1566,-3.1568,-3.1608,0,0,-3.1575,-3.1576,0,0,0,0,0,0,0,0,-3.1494,-3.1499,-3.1532,-3.1532,-3.1532,-3.155,-3.1548,-3.1579,-3.1545,-3.1539,-3.1541,-3.154,-3.1561,-3.1563,-3.1571,-3.1609,-3.161,-3.1575,-3.1576,-3.1577,-3.1578,0,0,0,0,0,0,0,-3.1492,-3.1497,-3.1548,-3.1533,-3.1532,-3.1526,-3.1529,-3.1554,-3.1557,-3.154,-3.1538,-3.1542,-3.156,-3.1569,-3.1571,-3.161,-3.1575,-3.1577,-3.1578,-3.1579,-3.1685,-3.1686,0,0,0,0,0,0,-3.1491,-3.1496,-3.1547,-3.1549,-3.151,-3.1529,-3.1532,-3.1545,-3.1557,-3.1557,-3.1543,-3.1541,-3.1566,-3.1569,-3.1572,-3.1621,-3.1577,-3.1579,-3.158,-3.1683,-3.1685,-3.1687,0,0,0,0,0,0,-3.149,-3.1496,-3.1546,-3.1522,-3.1528,-3.1531,-3.1547,-3.1546,-3.1555,-3.1559,-3.1559,-3.1551,-3.1565,-3.1569,-3.16,-3.1622,-3.158,-3.1582,-3.1681,-3.1684,-3.1686,-3.1719,0,0,0,0,0,0,-3.1488,-3.1496,-3.1512,-3.1523,-3.1529,-3.1575,-3.1548,-3.1548,-3.1559,-3.1556,-3.1567,-3.1567,-3.1564,-3.1597,-3.1602,-3.1624,-3.1584,-3.168,-3.1683,-3.1685,-3.1716,-3.1722,-3.1727,0,0,0,0,0,-3.1486,-3.1518,-3.1512,-3.1519,-3.1549,-3.1576,-3.158,-3.1576,-3.1561,-3.1577,-3.158,-3.1567,-3.1618,-3.16,-3.1606,-3.1629,-3.1678,-3.1682,-3.1685,-3.1714,-3.1721,-3.1727,0,0,0,0,0,0,-3.1508,-3.152,-3.1513,-3.1551,-3.1563,-3.1573,-3.1592,-3.1584,-3.16,-3.1596,-3.159,-3.1593,-3.1626,-3.163,-3.161,-3.1669,-3.1646,-3.165,-3.1665,-3.1672,-3.1678,-3.1677,-3.1586,0,0,0,0,0,-3.1517,-3.1539,-3.1548,-3.158,-3.1587,-3.1589,-3.16,-3.1597,-3.1608,-3.1613,-3.1618,-3.1629,-3.1648,-3.166,-3.1677,-3.1716,-3.1719,-3.1735,-3.174,-3.1745,-3.175,-3.1773,-3.178,-3.1698,-3.1698,-3.1698,0,0,-3.1537,-3.1546,-3.156,-3.1585,-3.1594,-3.1617,-3.1593,-3.1617,-3.1634,-3.1616,-3.1647,-3.1651,-3.1662,-3.1699,-3.1714,-3.1703,-3.1773,-3.1749,-3.1753,-3.1755,-3.1777,-3.1785,-3.1792,-3.17,-3.17,-3.1699,0,0,-3.1584,-3.1593,-3.1622,-3.1632,-3.1647,-3.1648,-3.1655,-3.1666,-3.1669,-3.17,-3.1688,-3.1707,-3.1739,-3.1749,-3.1758,-3.1811,-3.18,-3.1816,-3.1846,-3.1869,-3.1875,-3.1881,-3.1902,-3.1909,-3.182,-3.182,-3.1821,0,-3.1606,-3.1641,-3.1638,-3.1664,-3.1676,-3.1663,-3.1692,-3.1701,-3.172,-3.1729,-3.1715,-3.1757,-3.1763,-3.1803,-3.1816,-3.1823,-3.1831,-3.1816,-3.1875,-3.1881,-3.1886,-3.1906,-3.1913,-3.1822,-3.1822,-3.1822,-3.1822,0,-3.1668,-3.1692,-3.1714,-3.1735,-3.1749,-3.1777,-3.1777,-3.1792,-3.1787,-3.179,-3.1822,-3.183,-3.185,-3.1858,-3.1853,-3.1897,-3.189,-3.1876,-3.1853,-3.1896,-3.1915,-3.1922,-3.1825,-3.1825,-3.1824,-3.1824,0,0,-3.173,-3.1751,-3.1759,-3.177,-3.1786,-3.1804,-3.1831,-3.1852,-3.1865,-3.1878,-3.1902,-3.193,-3.1918,-3.1928,-3.1924,-3.1943,-3.1987,-3.1927,-3.1927,-3.194,-3.2039,-3.2051,-3.206,-3.198,-3.1982,-3.1983,-3.2038,0,-3.178,-3.183,-3.1828,-3.1874,-3.1897,-3.1886,-3.1909,-3.1921,-3.1925,-3.1944,-3.1947,-3.1968,-3.1949,-3.1956,-3.1974,-3.1978,-3.2008,-3.1974,-3.2002,-3.2003,-3.2002,-3.2069,-3.2081,-3.2133,-3.2045,-3.2047,-3.2048,0,-3.1845,-3.1864,-3.1913,-3.1928,-3.1937,-3.1959,-3.1979,-3.1997,-3.2011,-3.2012,-3.2025,-3.2018,-3.2045,-3.202,-3.2059,-3.2036,-3.2047,-3.2051,-3.2053,-3.2056,-3.2029,-3.2076,-3.215,-3.2159,-3.2059,-3.2058,-3.2057,0,-3.1888,-3.1925,-3.196,-3.1969,-3.1986,-3.2002,-3.201,-3.2022,-3.2036,-3.2052,-3.2061,-3.208,-3.2091,-3.2106,-3.2105,-3.2086,-3.2144,-3.2119,-3.2146,-3.2147,-3.216,-3.216,-3.2238,-3.2164,-3.2164,-3.2164,-3.2164,0,-3.1945,-3.1976,-3.198,-3.2002,-3.2036,-3.2034,-3.2067,-3.2073,-3.2085,-3.2107,-3.2096,-3.2117,-3.2113,-3.2134,-3.2132,-3.2165,-3.2169,-3.2171,-3.2171,-3.2174,-3.2174,-3.2182,-3.2179,-3.2166,-3.2166,-3.2165,-3.2165,0,-3.2,-3.2004,-3.2041,-3.2055,-3.206,-3.2085,-3.2096,-3.2117,-3.2119,-3.2148,-3.2154,-3.2158,-3.2182,-3.2182,-3.2208,-3.2207,-3.2249,-3.2243,-3.2245,-3.2244,-3.2273,-3.2271,-3.2361,-3.2374,-3.229,-3.2291,-3.2291,0,-3.2037,-3.2061,-3.2079,-3.2094,-3.2104,-3.2127,-3.2142,-3.214,-3.2156,-3.2174,-3.2192,-3.2216,-3.2235,-3.2273,-3.2278,-3.2299,-3.2295,-3.2325,-3.2298,-3.23,-3.2298,-3.2297,-3.23,-3.2331,-3.2332,-3.2332,-3.2333,0,-3.2103,-3.2105,-3.2127,-3.215,-3.2168,-3.2186,-3.2202,-3.2215,-3.2215,-3.2233,-3.2259,-3.2273,-3.2302,-3.2325,-3.2346,-3.2352,-3.2343,-3.2341,-3.2349,-3.2353,-3.2354,-3.2356,-3.2262,-3.234,-3.2339,-3.2339,-3.2338,-3.2338,-3.2152,-3.2174,-3.219,-3.2216,-3.2229,-3.2245,-3.2265,-3.2272,-3.2294,-3.2318,-3.2315,-3.2344,-3.2358,-3.2385,-3.2394,-3.2416,-3.2405,-3.2416,-3.2419,-3.2422,-3.2427,-3.2349,-3.2419,-3.2419,-3.2418,-3.2418,-3.2418,0,-3.2219,-3.223,-3.2254,-3.2279,-3.2299,-3.229,-3.2308,-3.2325,-3.2351,-3.2366,-3.2385,-3.2415,-3.2439,-3.2446,-3.2468,-3.2485,-3.2481,-3.2491,-3.2491,-3.2493,-3.2434,-3.2426,-3.2494,-3.2494,-3.2494,-3.2494,-3.2494,-3.2494,-3.2257,-3.2295,-3.2298,-3.2341,-3.2351,-3.2381,-3.2393,-3.2408,-3.242,-3.2455,-3.2475,-3.248,-3.2492,-3.2515,-3.2536,-3.2538,-3.2547,-3.2559,-3.2559,-3.2504,-3.2497,-3.2489,-3.2482,-3.2561,-3.2561,-3.2617,-3.2617,-3.2618]}]]